Regional Weather Roundup
Issued by NWS

Home | Current Version | Previous Version | Text Only | Print | Product List | Glossary Off
Versions: 1 2 3 4 5 6 7 8 9 10 11 12 13 14 15 16 17 18 19 20 21 22 23 24 25 26 27 28 29 30 31 32 33 34 35 36 37 38 39 40 41 42 43 44 45 46 47 48 49 50

000
ASUS43 KFSD 212002
RWRSD

WEATHER ROUNDUP FOR SOUTH DAKOTA
NATIONAL WEATHER SERVICE SIOUX FALLS SD
300 PM CDT SUN MAY 21 2017

NOTE: "FAIR" INDICATES FEW OR NO CLOUDS BELOW 12,000 FEET WITH NO
SIGNIFICANT WEATHER AND/OR OBSTRUCTIONS TO VISIBILITY.


SDZ001>005-009-010-012>017-212100-
NORTHWEST AND NORTH CENTRAL SOUTH DAKOTA

CITY           SKY/WX    TMP DP  RH WIND       PRES   REMARKS
BUFFALO          N/A     65  38  36 NW25G37   29.97F
FAITH            N/A     68  33  27 N15G21    29.99F
MOBRIDGE       SUNNY     70  32  24 NW13G22   29.93F
$$

SDZ012>016-024>037-041>051-057-063-072>074-212100-
SOUTHWEST AND SOUTH CENTRAL SOUTH DAKOTA

CITY           SKY/WX    TMP DP  RH WIND       PRES   REMARKS
RAPID CTY ARPT PTSUNNY   67  37  33 N13G23    30.05F
PIERRE         SUNNY     66  34  30 NW12      30.01F
CUSTER         LGT RAIN  52  36  54 W14G21    30.13F
ELLSWORTH AFB  CLOUDY    63  36  36 NW14      30.06S
PHILIP         MOSUNNY   68  33  27 NW10G21   30.02F
PINE RIDGE     PTSUNNY   57  47  69 E7        30.09F
SPEARFISH      FAIR      61  39  44 NW13G21   30.09F
WINNER         FAIR      65  41  41 W15G22    30.05F
$$

SDZ004>011-016>023-039-040-212100-
NORTHEAST SOUTH DAKOTA

CITY           SKY/WX    TMP DP  RH WIND       PRES   REMARKS
ABERDEEN       SUNNY     59  38  45 N16       29.98F
WATERTOWN      CLOUDY    49  39  68 NW20      29.96S
BROOKINGS      CLOUDY    49  41  74 NW21      29.98S
SISSETON         N/A     51  44  77 N20       29.94R
$$

SDZ017-020-022-023-036>040-048>070-212100-
SOUTHEAST SOUTH DAKOTA

CITY           SKY/WX    TMP DP  RH WIND       PRES   REMARKS
SIOUX FALLS    PTSUNNY   53  43  68 NW21G29   30.01S
HURON          MOSUNNY   62  42  47 NW17      30.00F
CHAMBERLAIN    SUNNY     65  39  37 W9G20     30.04F
MITCHELL       PTSUNNY   60  41  49 N18G26    30.04F
YANKTON        MOSUNNY   58  43  57 SW20G28   30.05F
$$

ABBREVIATIONS USED IN REMARKS
   TC - TEMPERATURE IN CELSIUS
  WCI - WIND CHILL INDEX
   HX - HEAT INDEX
  VSB - VISIBILITY





USA.gov is the U.S. government's official web portal to all federal, state and local government web resources and services.